Regional Weather Roundup
Issued by NWS Sterling, VA

Home | Current Version | Previous Version | Graphics & Text | Print | Product List | Glossary On
Versions: 1 2 3 4 5 6 7 8 9 10 11 12 13 14 15 16 17 18 19 20 21 22 23 24 25 26 27
000
ASUS41 KLWX 271511
RWRLWX

REGIONAL WEATHER ROUNDUP
NATIONAL WEATHER SERVICE BALTIMORE MD/WASHINGTON DC
1100 AM EDT TUE JUN 27 2017

Note: "FAIR" indicates few or no clouds below 12,000 feet
with no significant weather and/or obstructions to visibility.
 TC=TEMPERATURE CELSIUS

 * =Non NWS site. Station does not report precipitation (e.g. rain,
    snow, etc.), thunder, or fog.

DCZ001-MDZ009-015-VAZ040>042-051-053>054-271600-
WASHINGTON METRO

CITY           SKY/WX    TMP DP  RH WIND       PRES   REMARKS
WASHINGTON NAT MOSUNNY   78  51  38 N9        30.04S
DULLES         MOSUNNY   74  50  42 VRB6      30.04S
ANDREWS AFB    MOSUNNY   77  50  38 W7        30.02S
FT BELVOIR     SUNNY     78  50  37 NW10      30.03S
QUANTICO       MOSUNNY   76  54  46 SE6       30.04S
COLLEGE PARK*  MOSUNNY   75  50  41 W10       30.03S
LEESBURG*      SUNNY     77  55  47 NW8G16    30.05S
MANASSAS*      SUNNY     76  52  43 VRB5      30.04S
GAITHERSBURG*  SUNNY     73  53  49 NW8       30.05S

$$

MDZ006>007-011-014-271600-
BALTIMORE METRO

CITY           SKY/WX    TMP DP  RH WIND       PRES   REMARKS
BWI AIRPORT    PTSUNNY   76  51  41 VRB5      30.01F
MD SCIENCE CTR   N/A     78  50  37 MISG      30.02S
MARTIN STATE   MOSUNNY   75  54  46 CALM      30.02F
ANNAPOLIS      SUNNY     73  55  53 NW8       30.02S
FORT MEADE*    MOSUNNY   73  54  49 W8        30.04F

$$

MDZ012-015-019>023-271600-
MARYLAND EASTERN SHORE

CITY           SKY/WX    TMP DP  RH WIND       PRES   REMARKS
OCEAN CITY     PTSUNNY   77  57  50 NW8       30.03R
SALISBURY      CLOUDY    75  55  49 N6        30.01F
BAY BRIDGE AP* SUNNY     75  57  53 W5        30.02S
CAMBRIDGE*     SUNNY     75  54  46 N7        30.02F
EASTON*        MOSUNNY   75  57  53 CALM      30.05F

$$

MDZ017>025-271600-
SOUTHERN MARYLAND

CITY           SKY/WX    TMP DP  RH WIND       PRES   REMARKS
PATUXENT RIVER PTSUNNY   76  54  46 VRB3      30.03F
ST INIGOES     SUNNY     77  52  41 VRB5      30.03S
LEONARDTOWN*   MOSUNNY   73  52  46 CALM      30.05R

$$

MDZ003>005-271600-
NORTH CENTRAL MARYLAND

CITY           SKY/WX    TMP DP  RH WIND       PRES   REMARKS
FREDERICK*     SUNNY     73  48  40 NW9       30.06F
HAGERSTOWN APT MOSUNNY   70  52  52 NW9G18    30.04S
WESTMINSTER*   SUNNY     73  52  46 NW8       30.03F

$$

MDZ501>502-271600-
WESTERN MARYLAND

CITY           SKY/WX    TMP DP  RH WIND       PRES   REMARKS
OAKLAND*       NOT AVBL
CUMBERLAND*    MOSUNNY   70  46  43 W9G16     30.09S

$$

VAZ025>031-271600-
SHENANDOAH VALLEY

CITY           SKY/WX    TMP DP  RH WIND       PRES   REMARKS
WINCHESTER*    MOSUNNY   72  50  46 SW7G16    30.04F
FRONT ROYAL*   MOSUNNY   72  52  49 CALM      30.04S
LURAY*         MOSUNNY   72  52  49 S5        30.05S
NEW MARKET*    PTSUNNY   73  45  37 W5        30.05S
STAUNTON*      SUNNY     71  49  45 W6        30.08F
WAYNESBORO*    CLOUDY    69  52  54 CALM      30.08S

$$

WVZ021-048>050-054>055-271600-
EASTERN WEST VIRGINIA PANHANDLE

CITY           SKY/WX    TMP DP  RH WIND       PRES   REMARKS
MARTINSBURG    MOSUNNY   73  52  47 NW10G20   30.03F
PETERSBURG*    PTSUNNY   73  48  41 W10G30    30.07R

$$

VAZ036>039-050-271600-
CENTRAL FOOTHILLS

CITY           SKY/WX    TMP DP  RH WIND       PRES   REMARKS
CHARLOTTESVILL CLOUDY    76  52  43 VRB5      30.05F
CULPEPER*      MOSUNNY   76  53  44 NW6       30.04F
ORANGE*        SUNNY     77  50  38 SW7       30.04F
GORDONSVILLE*  SUNNY     76  52  42 S7        30.04F
WARRENTON*     MOSUNNY   77  49  36 W3        30.04S

$$

VAZ055>057-271600-
NORTH AND CENTRAL PIEDMONT

CITY           SKY/WX    TMP DP  RH WIND       PRES   REMARKS
FREDERICKSBRG* SUNNY     76  55  47 S3        30.03F
STAFFORD*      SUNNY     76  49  39 W6        30.08S

$$

NCZ024-NYZ072-PAZ021-071-VAZ022-071-271600-
OTHER REGIONAL OBSERVATIONS

CITY           SKY/WX    TMP DP  RH WIND       PRES   REMARKS
NEW YORK CITY  CLOUDY    67  61  81 W7        30.03S
PHILADELPHIA   MOSUNNY   71  60  68 S3        30.01F
PITTSBURGH     MOSUNNY   63  46  54 W12       30.07S
ROANOKE        MOSUNNY   72  48  42 NW7       30.11F
RICHMOND       MOSUNNY   76  54  46 CALM      30.05S
RALEIGH        MOSUNNY   76  54  46 NE8       30.08S

$$

ANZ530>537-271600-
MARINE OBSERVATIONS

STATION/POSITION TIME  TEMP    WIND        PRES
                       AIR SEA DIR/SP/G
                 (UTC) (F)     (DEG/KT/KT) (MB)
THOMAS PT LIGHT  1500   72 77  300/  2/  3   N/A
BALT KEY BRIDGE  1448   73      10/  4/  4 1016.1F
COVE POINT       1448   72      30/  5/  8 1017.5F
LEWISETTA        1448   74 79   10/  4/  6 1017.1R
SOLOMONS ISLAND  1448          350/  4/  7   N/A
PINEY POINT      1442           10/  5/  7   N/A

$$





USA.gov is the U.S. government's official web portal to all federal, state and local government web resources and services.